Location: Arrodets-la-Barthe
(43.0306°N, 0.2829°E)
Time: 19:00:53
(UTC+00:00)

IRS-1C Rocket - Pass Details

Date: 24 October 2021
Orbit: 801 x 805 km, 98.9° (Epoch: 02 December)

Event Time Altitude Azimuth Distance (km) Brightness Sun altitude
Exits shadow 18:45:19 17° 148° (SSE) 1,946 5.8 -19.5°
Maximum altitude 18:49:22 61° 71° (ENE) 909 4.0 -20.3°
Drops below altitude 10° 18:54:34 10° 353° (N) 2,391 6.7 -21.2°
Sets 18:56:56 0° 350° (N) 3,327 7.5 -21.6°
